TimeMST,TemperatureF,Dew PointF,Humidity,Sea Level PressureIn,VisibilityMPH,Wind Direction,Wind SpeedMPH,Gust SpeedMPH,PrecipitationIn,Events,Conditions,WindDirDegrees,DateUTC
12:53 AM,57.0,33.1,40,29.96,10.0,North,5.8,-,N/A,,Clear,360,2013-11-18 07:53:00
1:53 AM,55.9,32.0,40,29.97,10.0,North,10.4,-,N/A,,Clear,350,2013-11-18 08:53:00
2:53 AM,53.1,33.1,47,29.97,10.0,North,9.2,-,N/A,,Clear,360,2013-11-18 09:53:00
3:53 AM,50.0,32.0,50,30.00,10.0,NW,8.1,-,N/A,,Clear,320,2013-11-18 10:53:00
4:53 AM,50.0,32.0,50,30.02,10.0,NNE,6.9,-,N/A,,Clear,20,2013-11-18 11:53:00
5:53 AM,46.0,32.0,58,30.06,10.0,NW,8.1,-,N/A,,Clear,320,2013-11-18 12:53:00
6:53 AM,45.0,32.0,60,30.09,10.0,NW,6.9,-,N/A,,Clear,320,2013-11-18 13:53:00
7:53 AM,52.0,30.0,43,30.12,10.0,NNE,3.5,-,N/A,,Clear,20,2013-11-18 14:53:00
8:53 AM,55.0,30.0,38,30.13,10.0,North,3.5,-,N/A,,Clear,360,2013-11-18 15:53:00
9:53 AM,55.9,30.9,39,30.14,10.0,North,3.5,-,N/A,,Clear,350,2013-11-18 16:53:00
10:53 AM,57.0,30.9,37,30.13,10.0,NNW,5.8,-,N/A,,Clear,340,2013-11-18 17:53:00
11:53 AM,57.9,30.0,35,30.10,10.0,NNW,8.1,-,N/A,,Clear,340,2013-11-18 18:53:00
12:53 PM,61.0,30.0,31,30.06,10.0,North,8.1,-,N/A,,Clear,350,2013-11-18 19:53:00
1:53 PM,62.1,30.0,30,30.03,10.0,North,8.1,-,N/A,,Clear,360,2013-11-18 20:53:00
2:53 PM,63.0,30.0,29,30.04,10.0,NNE,5.8,-,N/A,,Clear,30,2013-11-18 21:53:00
3:53 PM,62.1,30.9,31,30.04,10.0,NE,6.9,-,N/A,,Clear,50,2013-11-18 22:53:00
4:53 PM,61.0,30.0,31,30.03,10.0,ENE,4.6,-,N/A,,Clear,70,2013-11-18 23:53:00
5:53 PM,52.0,28.9,41,30.06,10.0,SSW,3.5,-,N/A,,Clear,200,2013-11-19 00:53:00
6:53 PM,46.0,28.9,51,30.08,10.0,SSW,8.1,-,N/A,,Clear,210,2013-11-19 01:53:00
7:53 PM,45.0,28.0,52,30.08,10.0,North,-9999.0,-,N/A,,Clear,0,2013-11-19 02:53:00
8:53 PM,44.1,28.9,55,30.08,10.0,West,4.6,-,N/A,,Clear,270,2013-11-19 03:53:00
9:53 PM,44.1,30.0,58,30.10,10.0,North,5.8,-,N/A,,Clear,350,2013-11-19 04:53:00
10:53 PM,45.0,30.9,58,30.10,10.0,NW,4.6,-,N/A,,Clear,310,2013-11-19 05:53:00
11:53 PM,42.1,30.0,62,30.09,10.0,West,3.5,-,N/A,,Clear,270,2013-11-19 06:53:00